sat.trackr.live / text

‹ back to catalog

STARLINK-2084

NORAD 47368 · 2021-005V

PAYLOAD ACTIVE UNKNOWN

§ Identity

Operator
Country
US
Launch date
2021-01-20
Launch site
AFETR
Launch vehicle
Mass (kg)
RCS (m²)

Purposes: comms

External: N2YO · Heavens-Above · Gunter

§ Orbital elements

Epoch: 2026-09-19T15:52:14.201472Z

Period
94.01 min
Inclination
53.1606°
Eccentricity
0.0001409
Mean motion
15.31696611 rev/d
Perigee alt
469.8 km
Apogee alt
471.7 km
Semi-major
6,848.9 km
B*
2.7784e-5
RAAN
239.8009°
Arg perigee
92.1081°
Mean anomaly
268.0082°
Rev number
31,275

§ Raw data

STARLINK-20841 47368U 21005V   26262.66127548  .00000497  00000+0  27784-4 0  99942 47368  53.1606 239.8009 0001409  92.1081 268.0082 15.31696611312750

JSON: /api/v1/satellites/47368 · /tle

For live sub-satellite position, see the globe view (requires WebGL).

§ Visibility from observer

Set your observer location to see the next 7 days of passes ≥ 10°. The values pass through the URL so the page stays shareable.

No JS? Fill the form by hand. The geolocation button needs JavaScript.